Powrót do katalogu

FENGYUN 1C DEB

AktywnySSO
NORAD 30107·DEBRIS·🇨🇳 China

Wystrzelony May 10, 1999 z Taiyuan Satellite Launch Center

Loading…

Następne Przeloty (najbliższe 24 godziny)

TLE

ŚwieżeSource: Space-Track

Epoka: Sep 14, 2026, 09:58 UTC

1 30107U 99025RL  26257.41540216  .00000073  00000-0  56506-4 0  9997
2 30107  98.8093 316.2005 0126729 210.8320 148.5368 14.14534540 14573

Śledź FENGYUN 1C DEB w czasie rzeczywistym z AllMySat

Download on the App Store